Voltar ao catálogo

STARLINK-35411

AtivoComunicaçõesVLEO
NORAD 66560·PAYLOAD·🇺🇸 United States

Lançado Nov 21, 2025 de Cape Canaveral Space Force Station

Loading…

Próximas Passagens (próximas 24 horas)

TLE

AtualizadoSource: CelesTrak SupGP

Época: Sep 15, 2026, 02:50 UTC

1 66560C 25268D   26258.11854167  .00029875  00000+0  10816-2 0  2588
2 66560  43.0040 357.3226 0001667 271.4224 311.6458 15.27578789    14

Acompanhe STARLINK-35411 em tempo real com AllMySat

Download on the App Store